Wind_Speed
3 3 3 3 2 2 3 4 4 4 5 5 5 5 6 7 9 10 10 9 8 8 9 10 10 10 10 10 9 9 9 9 8 7 6 5 4 4 4 3 4 4 4
3 3 3 2 2 3 2 3 4 3 4 5 5 5 6 7 9 9 9 9 8 8 9 10 10 10 10 9 8 9 9 9 7 7 5 4 4 4 3 3 3 4 4
3 3 3 3 3 3 3 4 3 4 4 5 5 6 6 7 9 9 9 9 9 9 9 10 10 10 9 9 8 8 8 7 7 6 5 5 5 3 3 3 3 3 3
3 3 3 3 3 3 3 4 3 3 4 4 5 5 5 6 8 8 9 9 9 9 9 9 9 9 10 9 8 7 7 6 6 5 5 5 4 3 3 2 2 2 2
3 3 3 3 3 3 4 4 4 4 4 4 5 5 5 5 7 7 9 9 9 10 9 9 9 9 10 9 8 8 7 6 5 5 5 5 4 3 3 1 2 2 2
3 3 3 3 3 3 3 3 3 3 4 5 5 5 5 5 7 8 9 9 9 9 10 9 8 8 9 9 8 7 8 7 6 5 5 4 4 3 3 2 2 2 2
4 3 3 3 3 2 2 3 3 3 3 5 4 5 5 6 8 8 9 9 9 10 10 9 8 8 8 9 8 8 8 7 6 6 5 4 3 3 4 3 2 2 2
4 4 3 3 2 1 1 1 2 2 2 3 4 4 5 6 7 6 8 9 10 9 9 9 9 7 8 8 8 8 7 7 6 6 5 4 3 4 3 3 3 2 2
5 5 4 3 2 2 2 2 1 1 1 2 3 3 5 6 6 6 7 8 9 9 9 9 8 7 8 8 8 8 7 7 7 6 5 4 3 4 4 3 3 3 3
6 5 4 3 2 2 2 2 1 1 2 3 4 4 5 6 6 7 8 8 9 9 8 8 8 7 8 7 7 7 7 7 7 6 5 5 4 4 3 3 3 3 2
6 6 5 4 2 2 2 2 1 2 3 3 3 4 5 6 5 6 7 8 8 8 8 7 7 7 7 7 7 6 7 7 6 5 5 5 5 5 4 4 4 3 3
7 6 5 5 4 3 2 2 2 2 3 4 4 4 6 7 5 5 6 7 8 8 7 7 7 7 7 6 6 6 6 6 7 5 5 5 5 6 5 4 4 4 3
7 7 6 6 5 5 3 3 3 3 3 3 3 4 5 7 6 6 6 7 8 8 8 8 8 8 7 7 6 6 6 6 6 4 4 5 5 5 5 4 3 3 3
8 7 6 6 7 6 5 4 3 3 3 2 3 3 4 5 6 7 7 7 8 8 8 8 7 7 7 7 6 6 5 5 5 4 5 6 6 5 5 4 4 3 3
8 8 8 7 7 6 6 5 4 3 4 3 2 3 4 5 6 6 7 6 5 5 5 5 6 7 6 6 6 5 5 4 4 5 6 6 6 5 5 4 4 3 4
8 8 8 8 7 7 7 7 6 5 5 4 4 5 5 5 5 6 6 5 4 4 4 3 4 5 5 6 6 5 5 5 5 5 5 5 5 5 5 3 4 4 4
9 8 8 8 7 7 7 7 6 7 6 5 5 5 5 5 4 5 5 5 4 4 3 3 4 4 4 5 5 5 4 5 5 4 4 4 4 4 5 4 5 6 6
8 8 8 7 7 7 6 6 7 7 7 7 7 6 6 5 4 4 3 3 3 3 2 3 3 3 4 5 5 5 4 4 4 4 4 4 4 4 5 6 7 7 7
8 7 7 7 7 6 6 6 6 6 6 6 6 6 5 4 3 3 2 2 1 2 2 2 3 3 3 4 5 4 4 4 5 5 5 5 5 6 7 7 8 7 7
8 7 7 6 6 6 5 5 5 5 5 5 5 5 5 4 4 3 2 2 1 1 1 2 3 3 3 4 5 5 5 5 6 6 6 6 6 7 7 7 7 7 7
9 8 6 6 6 6 5 4 4 4 4 4 3 3 3 3 3 3 2 1 0 1 1 1 2 3 4 4 5 5 5 5 6 6 6 7 6 7 7 7 7 7 8
9 8 7 6 6 6 6 5 4 3 2 2 2 2 2 2 1 1 1 1 2 2 2 3 3 3 3 3 3 4 5 5 5 6 6 7 7 8 7 7 8 8 8
9 9 8 7 6 5 5 5 5 4 3 2 2 2 1 1 1 2 2 2 3 3 3 3 4 4 4 4 4 4 5 5 5 6 6 7 7 7 7 8 8 8 8
8 8 8 7 6 6 5 6 6 5 4 3 3 2 2 2 2 3 3 3 4 4 4 4 4 4 5 5 6 6 6 6 6 8 8 7 7 7 8 8 9 9 9
8 7 7 6 6 6 5 5 5 5 5 4 3 3 3 3 4 5 5 5 5 5 5 5 6 6 6 7 7 7 7 8 8 8 8 8 8 8 8 9 9 9 9
6 6 6 6 6 5 5 5 5 5 5 5 4 4 4 5 6 6 6 6 6 6 6 6 6 6 7 7 8 8 9 9 9 9 9 9 9 9 10 10 10 10 9
Wind_Direction
314 306 290 273 270 275 237 214 202 194 199 198 197 196 196 192 186 180 178 176 174 169 174 177 176 181 178 176 178 178 176 176 174 174 167 163 159 154 146 135 130 131 125
317 308 304 287 270 272 232 218 223 218 213 205 197 193 190 187 184 184 179 177 174 171 172 176 175 177 179 177 174 176 177 175 173 175 175 166 155 156 147 134 133 125 116
312 304 304 297 277 265 243 233 233 234 215 200 202 195 192 189 184 185 184 179 173 171 170 170 169 172 177 175 174 176 177 179 178 177 175 167 163 162 154 132 133 130 126
308 297 293 293 280 264 257 249 238 238 225 216 205 193 191 189 185 185 183 179 174 168 163 163 169 173 179 179 178 178 178 171 169 178 178 170 172 173 170 136 129 137 148
312 296 293 295 287 278 264 250 235 226 229 233 218 202 191 192 191 183 180 177 174 172 168 170 170 175 182 179 176 175 177 174 168 177 179 174 174 182 181 174 164 147 146
321 308 305 307 298 282 265 245 219 217 222 226 219 206 191 187 188 186 182 177 176 174 172 171 172 174 178 177 177 176 179 176 174 177 174 177 172 183 193 179 164 146 147
340 326 315 320 306 292 270 254 227 226 220 213 211 213 195 185 186 186 181 178 175 173 172 168 168 178 182 179 180 183 182 177 176 181 182 185 184 188 185 181 179 162 173
354 348 346 347 351 329 318 288 256 239 209 194 204 202 192 186 179 177 179 172 169 170 171 172 176 186 186 183 187 190 186 180 182 182 184 187 177 187 189 187 188 187 194
10 12 9 5 9 351 351 331 283 265 207 188 183 179 176 174 172 169 176 173 169 169 172 176 181 181 181 186 190 191 184 180 184 186 183 175 177 196 197 200 199 191 186
25 21 14 18 22 2 355 359 302 206 174 172 176 169 167 171 170 170 171 171 170 165 168 179 183 179 180 184 192 192 187 186 187 187 184 183 197 200 200 206 200 198 189
18 19 21 23 27 27 1 6 91 159 155 169 171 160 158 164 166 162 167 168 169 167 168 174 176 174 174 180 191 187 184 189 192 189 191 196 208 215 221 217 212 211 209
21 29 35 33 34 36 49 55 88 129 149 155 156 153 156 162 165 162 163 164 167 166 167 170 175 176 176 179 189 187 185 188 189 189 200 208 216 221 226 226 218 212 228
30 35 39 33 43 54 74 76 63 115 131 141 151 157 157 165 165 162 159 159 156 155 160 163 171 170 169 173 182 185 184 186 191 200 212 213 218 220 220 219 209 216 229
36 39 39 35 43 47 58 69 71 77 104 122 125 135 161 165 162 159 142 147 155 155 155 159 161 167 171 174 178 180 190 196 201 217 215 212 221 216 217 219 223 225 247
36 38 36 37 42 44 54 66 69 80 94 97 116 121 148 155 159 165 155 151 154 154 160 156 156 166 175 175 179 186 194 208 221 213 221 223 222 226 229 234 229 233 252
37 37 39 40 45 53 59 61 71 83 98 106 110 113 133 150 157 162 159 163 166 164 165 160 159 164 175 184 191 197 207 216 216 216 222 223 227 231 229 241 248 246 257
33 33 38 42 46 55 56 53 63 80 94 101 110 107 119 132 142 147 153 164 163 166 173 176 178 179 177 186 200 203 210 218 218 225 226 220 223 235 237 255 257 255 260
32 29 37 41 42 48 53 54 58 74 86 102 100 96 104 115 126 137 149 156 170 168 177 185 189 189 191 197 208 220 232 230 244 245 246 239 239 252 256 260 263 261 265
32 29 35 41 44 45 50 60 59 65 79 90 85 89 96 97 101 108 132 147 162 173 179 193 206 210 215 208 209 225 237 256 258 252 254 251 253 267 268 265 266 270 269
25 23 31 34 38 40 43 50 57 63 76 87 83 85 91 88 83 85 98 115 146 194 212 218 224 225 232 236 233 233 238 247 256 259 259 263 273 272 270 269 271 271 267
22 22 24 28 30 35 37 39 53 66 80 86 80 82 87 86 81 74 73 68 54 299 269 246 252 248 254 251 256 248 239 246 253 259 264 273 276 273 273 270 271 274 273
20 23 27 32 32 35 36 34 38 41 67 74 82 84 82 81 72 41 18 355 329 314 295 282 284 280 279 281 285 286 274 266 265 261 269 274 277 276 277 280 279 279 279
18 20 24 26 29 30 29 29 33 40 51 71 77 69 51 37 13 329 318 311 312 313 304 301 303 298 294 290 291 298 296 283 273 276 284 282 277 282 289 292 289 286 283
14 17 18 21 24 28 33 33 33 35 37 45 40 21 359 333 329 328 323 313 308 312 305 306 306 302 302 297 297 299 295 294 284 283 288 286 282 284 288 292 289 286 286
7 11 14 17 20 22 28 26 23 21 19 20 17 5 342 327 328 328 322 310 305 303 297 298 301 298 300 298 295 296 296 294 291 286 287 286 283 286 290 291 291 289 287
358 2 6 8 7 10 9 7 5 5 4 3 355 348 342 336 331 323 318 310 302 299 296 294 298 295 293 291 291 297 298 298 297 293 290 290 288 288 287 286 291 295 291
Height
5868 5868 5867 5867 5867 5866 5866 5866 5866 5867 5867 5867 5868 5868 5868 5869 5869 5871 5872 5873 5874 5875 5876 5878 5881 5882 5884 5886 5888 5890 5891 5893 5894 5896 5897 5897 5898 5899 5901 5901 5902 5902 5903
5869 5868 5867 5867 5867 5867 5866 5866 5866 5866 5866 5867 5867 5868 5868 5868 5869 5870 5872 5873 5874 5875 5877 5879 5881 5883 5885 5887 5888 5890 5892 5893 5895 5896 5897 5898 5899 5900 5901 5901 5902 5903 5903
5869 5868 5867 5867 5867 5867 5867 5866 5866 5866 5866 5866 5867 5867 5868 5868 5869 5870 5871 5873 5874 5875 5877 5879 5881 5884 5885 5887 5889 5890 5892 5893 5895 5896 5897 5898 5899 5900 5901 5902 5903 5903 5904
5869 5868 5868 5867 5867 5867 5867 5867 5867 5866 5867 5867 5867 5867 5868 5868 5869 5870 5871 5873 5874 5876 5878 5880 5882 5883 5886 5888 5889 5891 5892 5894 5895 5896 5897 5899 5900 5900 5901 5902 5903 5903 5904
5869 5869 5868 5868 5867 5867 5867 5867 5867 5867 5867 5867 5867 5867 5868 5868 5869 5870 5872 5873 5875 5876 5878 5880 5882 5884 5886 5888 5889 5891 5893 5894 5895 5897 5898 5899 5900 5901 5901 5902 5903 5904 5904
5870 5869 5868 5868 5867 5867 5867 5867 5867 5867 5866 5867 5866 5867 5868 5868 5869 5870 5872 5873 5875 5877 5879 5880 5882 5884 5886 5888 5890 5891 5893 5894 5895 5897 5898 5899 5900 5901 5902 5903 5903 5904 5905
5870 5869 5869 5868 5868 5867 5867 5867 5866 5866 5866 5866 5866 5867 5868 5868 5869 5870 5872 5873 5875 5877 5879 5881 5883 5885 5886 5888 5890 5891 5893 5894 5895 5897 5898 5899 5900 5901 5902 5903 5903 5904 5905
5870 5869 5869 5868 5868 5868 5868 5867 5867 5866 5866 5866 5867 5867 5868 5869 5870 5871 5872 5874 5876 5877 5879 5881 5882 5884 5886 5888 5890 5891 5893 5894 5896 5897 5898 5899 5900 5901 5902 5903 5904 5904 5905
5870 5870 5869 5868 5868 5868 5868 5867 5867 5867 5867 5867 5867 5868 5869 5869 5871 5872 5873 5874 5876 5877 5878 5880 5882 5884 5886 5888 5890 5891 5893 5894 5895 5897 5898 5899 5900 5901 5902 5903 5904 5904 5905
5871 5870 5870 5869 5869 5869 5868 5868 5867 5867 5867 5867 5868 5869 5869 5870 5872 5873 5874 5875 5876 5878 5879 5880 5882 5884 5886 5888 5890 5891 5892 5893 5895 5897 5898 5899 5900 5901 5902 5903 5904 5904 5905
5872 5871 5870 5870 5869 5869 5868 5868 5868 5867 5868 5868 5869 5869 5870 5872 5873 5874 5875 5876 5877 5878 5879 5880 5882 5884 5886 5888 5889 5890 5892 5893 5895 5897 5898 5899 5900 5901 5902 5903 5904 5904 5905
5873 5872 5871 5870 5870 5869 5869 5868 5868 5868 5868 5869 5869 5870 5871 5873 5873 5875 5876 5877 5878 5878 5879 5880 5881 5884 5886 5888 5889 5890 5892 5894 5895 5897 5898 5899 5900 5901 5901 5902 5903 5904 5905
5874 5873 5873 5872 5870 5870 5870 5869 5869 5869 5869 5869 5870 5871 5872 5873 5874 5876 5877 5877 5878 5879 5880 5881 5882 5884 5886 5888 5889 5891 5893 5894 5895 5897 5898 5898 5899 5900 5901 5902 5903 5904 5905
5876 5875 5874 5873 5872 5871 5871 5871 5870 5870 5870 5871 5871 5872 5873 5874 5876 5877 5878 5879 5879 5880 5881 5883 5884 5885 5887 5889 5890 5892 5893 5894 5895 5897 5897 5898 5899 5899 5900 5902 5902 5903 5904
5878 5876 5875 5874 5874 5873 5873 5872 5872 5871 5871 5871 5871 5872 5873 5875 5877 5879 5880 5881 5882 5882 5884 5885 5886 5887 5888 5889 5891 5892 5893 5894 5895 5896 5897 5898 5898 5899 5900 5901 5902 5902 5903
5879 5878 5877 5876 5876 5875 5875 5874 5873 5873 5872 5872 5872 5873 5874 5876 5879 5880 5882 5883 5884 5885 5885 5886 5887 5888 5889 5890 5891 5892 5893 5894 5894 5895 5896 5897 5898 5899 5900 5901 5901 5902 5902
5881 5880 5879 5878 5877 5877 5877 5876 5875 5875 5874 5875 5875 5875 5876 5878 5880 5882 5883 5884 5885 5886 5887 5887 5888 5889 5890 5891 5892 5893 5893 5894 5895 5896 5897 5897 5898 5898 5899 5900 5900 5901 5901
5882 5881 5880 5880 5879 5878 5878 5878 5878 5878 5877 5877 5878 5878 5879 5880 5882 5883 5884 5885 5886 5887 5888 5888 5889 5890 5890 5891 5892 5893 5893 5894 5895 5896 5896 5897 5897 5898 5899 5899 5899 5899 5900
5884 5883 5882 5881 5881 5881 5880 5880 5880 5880 5880 5880 5881 5881 5882 5883 5883 5884 5885 5886 5887 5887 5888 5888 5889 5890 5891 5892 5892 5892 5893 5893 5894 5895 5895 5896 5897 5897 5897 5898 5898 5898 5898
5885 5884 5884 5883 5883 5882 5882 5882 5882 5882 5883 5883 5883 5883 5884 5884 5885 5886 5886 5887 5887 5888 5888 5889 5889 5890 5890 5891 5892 5892 5892 5893 5893 5894 5894 5895 5895 5896 5896 5896 5896 5896 5896
5887 5886 5885 5885 5884 5884 5884 5884 5884 5884 5884 5885 5885 5885 5885 5886 5886 5887 5887 5888 5888 5888 5889 5889 5890 5890 5890 5890 5891 5891 5891 5892 5892 5893 5893 5893 5894 5894 5894 5894 5894 5894 5894
5888 5887 5886 5886 5886 5885 5885 5885 5886 5885 5886 5886 5886 5887 5887 5887 5888 5888 5888 5889 5889 5889 5889 5890 5890 5890 5890 5890 5891 5891 5890 5891 5891 5891 5892 5892 5892 5892 5892 5892 5892 5893 5893
5889 5889 5888 5888 5887 5887 5887 5887 5887 5887 5887 5887 5887 5888 5888 5888 5889 5889 5889 5889 5889 5889 5889 5890 5890 5890 5890 5890 5890 5890 5890 5890 5890 5891 5890 5890 5891 5891 5891 5891 5891 5891 5890
5891 5890 5889 5889 5889 5889 5888 5888 5888 5888 5888 5888 5888 5888 5889 5889 5889 5889 5889 5889 5889 5889 5889 5889 5890 5889 5889 5889 5889 5889 5890 5889 5889 5889 5889 5889 5889 5889 5889 5889 5888 5888 5888
5892 5891 5890 5890 5890 5890 5890 5890 5890 5889 5889 5889 5889 5889 5889 5889 5889 5889 5889 5889 5889 5889 5889 5889 5889 5889 5889 5888 5888 5888 5888 5888 5888 5888 5888 5888 5888 5887 5887 5886 5886 5885 5885
5893 5892 5892 5891 5891 5891 5891 5891 5891 5890 5890 5890 5889 5889 5889 5889 5889 5889 5888 5888 5888 5888 5888 5888 5888 5888 5888 5887 5887 5887 5887 5887 5886 5886 5886 5885 5885 5885 5885 5884 5883 5883 5882